Year,Month,Day,Hour,Minute,Value (Times are PST for temperature in C)
2015,09,21,00,00,8.70
2015,09,21,00,01,8.70
2015,09,21,00,02,8.60
2015,09,21,00,03,8.60
2015,09,21,00,04,8.60
2015,09,21,00,05,8.50
2015,09,21,00,06,8.50
2015,09,21,00,07,8.50
2015,09,21,00,08,8.50
2015,09,21,00,09,8.50
2015,09,21,00,10,8.40
2015,09,21,00,11,8.40
2015,09,21,00,12,8.50
2015,09,21,00,13,8.50
2015,09,21,00,14,8.50
2015,09,21,00,15,8.50
2015,09,21,00,16,8.40
2015,09,21,00,17,8.40
2015,09,21,00,18,8.40
2015,09,21,00,19,8.30
2015,09,21,00,20,8.30
2015,09,21,00,21,8.30
2015,09,21,00,22,8.30
2015,09,21,00,23,8.30
2015,09,21,00,24,8.30
2015,09,21,00,25,8.30
2015,09,21,00,26,8.30
2015,09,21,00,27,8.30
2015,09,21,00,28,8.30
2015,09,21,00,29,8.30
2015,09,21,00,30,8.30
2015,09,21,00,31,8.30
2015,09,21,00,32,8.30
2015,09,21,00,33,8.30
2015,09,21,00,34,8.30
2015,09,21,00,35,8.30
2015,09,21,00,36,8.30
2015,09,21,00,37,8.30
2015,09,21,00,38,8.30
2015,09,21,00,39,8.30
2015,09,21,00,40,8.20
2015,09,21,00,41,8.30
2015,09,21,00,42,8.30
2015,09,21,00,43,8.30
2015,09,21,00,44,8.30
2015,09,21,00,45,8.30
2015,09,21,00,46,8.30
2015,09,21,00,47,8.30
2015,09,21,00,48,8.20
2015,09,21,00,49,8.20
2015,09,21,00,50,8.20
2015,09,21,00,51,8.30
2015,09,21,00,52,8.30
2015,09,21,00,53,8.30
2015,09,21,00,54,8.30
2015,09,21,00,55,8.30
2015,09,21,00,56,8.30
2015,09,21,00,57,8.30
2015,09,21,00,58,8.30
2015,09,21,00,59,8.30
2015,09,21,01,00,8.30
2015,09,21,01,01,8.30
2015,09,21,01,02,8.30
2015,09,21,01,03,8.30
2015,09,21,01,04,8.30
2015,09,21,01,05,8.20
2015,09,21,01,06,8.20
2015,09,21,01,07,8.20
2015,09,21,01,08,8.20
2015,09,21,01,09,8.20
2015,09,21,01,10,8.20
2015,09,21,01,11,8.20
2015,09,21,01,12,8.20
2015,09,21,01,13,8.10
2015,09,21,01,14,8.10
2015,09,21,01,15,8.10
2015,09,21,01,16,8.10
2015,09,21,01,17,8.10
2015,09,21,01,18,8.00
2015,09,21,01,19,8.00
2015,09,21,01,20,8.10
2015,09,21,01,21,8.10
2015,09,21,01,22,8.10
2015,09,21,01,23,8.10
2015,09,21,01,24,8.10
2015,09,21,01,25,8.10
2015,09,21,01,26,8.10
2015,09,21,01,27,8.10
2015,09,21,01,28,8.10
2015,09,21,01,29,8.10
2015,09,21,01,30,8.10
2015,09,21,01,31,8.00
2015,09,21,01,32,8.00
2015,09,21,01,33,8.00
2015,09,21,01,34,8.00
2015,09,21,01,35,8.00
2015,09,21,01,36,8.00
2015,09,21,01,37,8.00
2015,09,21,01,38,8.00
2015,09,21,01,39,8.00
2015,09,21,01,40,8.00
2015,09,21,01,41,8.00
2015,09,21,01,42,8.00
2015,09,21,01,43,8.00
2015,09,21,01,44,8.00
2015,09,21,01,45,8.00
2015,09,21,01,46,8.00
2015,09,21,01,47,8.00
2015,09,21,01,48,7.90
2015,09,21,01,49,7.90
2015,09,21,01,50,7.90
2015,09,21,01,51,7.90
2015,09,21,01,52,7.90
2015,09,21,01,53,7.90
2015,09,21,01,54,7.80
2015,09,21,01,55,7.80
2015,09,21,01,56,7.80
2015,09,21,01,57,7.80
2015,09,21,01,58,7.80
2015,09,21,01,59,7.80
2015,09,21,02,00,7.80
2015,09,21,02,01,7.80
2015,09,21,02,02,7.80
2015,09,21,02,03,7.80
2015,09,21,02,04,7.80
2015,09,21,02,05,7.80
2015,09,21,02,06,7.80
2015,09,21,02,07,7.80
2015,09,21,02,08,7.80
2015,09,21,02,09,7.80
2015,09,21,02,10,7.90
2015,09,21,02,11,7.90
2015,09,21,02,12,7.90
2015,09,21,02,13,7.90
2015,09,21,02,14,7.90
2015,09,21,02,15,7.90
2015,09,21,02,16,7.90
2015,09,21,02,17,7.90
2015,09,21,02,18,8.00
2015,09,21,02,19,7.90
2015,09,21,02,20,7.90
2015,09,21,02,21,7.90
2015,09,21,02,22,7.90
2015,09,21,02,23,7.90
2015,09,21,02,24,7.90
2015,09,21,02,25,7.90
2015,09,21,02,26,8.00
2015,09,21,02,27,8.00
2015,09,21,02,28,8.00
2015,09,21,02,29,8.00
2015,09,21,02,30,8.00
2015,09,21,02,31,8.10
2015,09,21,02,32,8.10
2015,09,21,02,33,8.10
2015,09,21,02,34,8.10
2015,09,21,02,35,8.20
2015,09,21,02,36,8.20
2015,09,21,02,37,8.20
2015,09,21,02,38,8.20
2015,09,21,02,39,8.20
2015,09,21,02,40,8.30
2015,09,21,02,41,8.30
2015,09,21,02,42,8.30
2015,09,21,02,43,8.40
2015,09,21,02,44,8.40
2015,09,21,02,45,8.40
2015,09,21,02,46,8.40
2015,09,21,02,47,8.40
2015,09,21,02,48,8.50
2015,09,21,02,49,8.50
2015,09,21,02,50,8.50
2015,09,21,02,51,8.50
2015,09,21,02,52,8.50
2015,09,21,02,53,8.50
2015,09,21,02,54,8.50
2015,09,21,02,55,8.60
2015,09,21,02,56,8.60
2015,09,21,02,57,8.60
2015,09,21,02,58,8.60
2015,09,21,02,59,8.60
2015,09,21,03,00,8.60
2015,09,21,03,01,8.70
2015,09,21,03,02,8.70
2015,09,21,03,03,8.70
2015,09,21,03,04,8.70
2015,09,21,03,05,8.70
2015,09,21,03,06,8.70
2015,09,21,03,07,8.70
2015,09,21,03,08,8.80
2015,09,21,03,09,8.80
2015,09,21,03,10,8.80
2015,09,21,03,11,8.80
2015,09,21,03,12,8.80
2015,09,21,03,13,8.80
2015,09,21,03,14,8.80
2015,09,21,03,15,8.80
2015,09,21,03,16,8.80
2015,09,21,03,17,8.90
2015,09,21,03,18,8.90
2015,09,21,03,19,8.90
2015,09,21,03,20,8.90
2015,09,21,03,21,8.90
2015,09,21,03,22,8.90
2015,09,21,03,23,8.90
2015,09,21,03,24,8.90
2015,09,21,03,25,9.00
2015,09,21,03,26,9.00
2015,09,21,03,27,9.00
2015,09,21,03,28,9.00
2015,09,21,03,29,9.10
2015,09,21,03,30,9.10
2015,09,21,03,31,9.10
2015,09,21,03,32,9.10
2015,09,21,03,33,9.10
2015,09,21,03,34,9.10
2015,09,21,03,35,9.10
2015,09,21,03,36,9.10
2015,09,21,03,37,9.20
2015,09,21,03,38,9.20
2015,09,21,03,39,9.20
2015,09,21,03,40,9.20
2015,09,21,03,41,9.20
2015,09,21,03,42,9.20
2015,09,21,03,43,9.20
2015,09,21,03,44,9.20
2015,09,21,03,45,9.20
2015,09,21,03,46,9.20
2015,09,21,03,47,9.20
2015,09,21,03,48,9.30
2015,09,21,03,49,9.30
2015,09,21,03,50,9.30
2015,09,21,03,51,9.30
2015,09,21,03,52,9.30
2015,09,21,03,53,9.30
2015,09,21,03,54,9.30
2015,09,21,03,55,9.30
2015,09,21,03,56,9.30
2015,09,21,03,57,9.30
2015,09,21,03,58,9.30
2015,09,21,03,59,9.40
2015,09,21,04,00,9.40
2015,09,21,04,01,9.40
2015,09,21,04,02,9.40
2015,09,21,04,03,9.40
2015,09,21,04,04,9.40
2015,09,21,04,05,9.40
2015,09,21,04,06,9.40
2015,09,21,04,07,9.40
2015,09,21,04,08,9.40
2015,09,21,04,09,9.40
2015,09,21,04,10,9.40
2015,09,21,04,11,9.40
2015,09,21,04,12,9.50
2015,09,21,04,13,9.50
2015,09,21,04,14,9.50
2015,09,21,04,15,9.50
2015,09,21,04,16,9.50
2015,09,21,04,17,9.40
2015,09,21,04,18,9.40
2015,09,21,04,19,9.50
2015,09,21,04,20,9.50
2015,09,21,04,21,9.50
2015,09,21,04,22,9.50
2015,09,21,04,23,9.50
2015,09,21,04,24,9.50
2015,09,21,04,25,9.60
2015,09,21,04,26,9.60
2015,09,21,04,27,9.60
2015,09,21,04,28,9.60
2015,09,21,04,29,9.60
2015,09,21,04,30,9.60
2015,09,21,04,31,9.60
2015,09,21,04,32,9.60
2015,09,21,04,33,9.60
2015,09,21,04,34,9.60
2015,09,21,04,35,9.60
2015,09,21,04,36,9.60
2015,09,21,04,37,9.60
2015,09,21,04,38,9.70
2015,09,21,04,39,9.90
2015,09,21,04,40,10.00
2015,09,21,04,41,10.10
2015,09,21,04,42,10.20
2015,09,21,04,43,10.20
2015,09,21,04,44,10.20
2015,09,21,04,45,10.30
2015,09,21,04,46,10.40
2015,09,21,04,47,10.50
2015,09,21,04,48,10.60
2015,09,21,04,49,10.60
2015,09,21,04,50,10.60
2015,09,21,04,51,10.70
2015,09,21,04,52,10.60
2015,09,21,04,53,10.60
2015,09,21,04,54,10.60
2015,09,21,04,55,10.60
2015,09,21,04,56,10.50
2015,09,21,04,57,10.40
2015,09,21,04,58,10.40
2015,09,21,04,59,10.40
2015,09,21,05,00,10.30
2015,09,21,05,01,10.30
2015,09,21,05,02,10.30
2015,09,21,05,03,10.20
2015,09,21,05,04,10.20
2015,09,21,05,05,10.10
2015,09,21,05,06,10.10
2015,09,21,05,07,10.10
2015,09,21,05,08,10.10
2015,09,21,05,09,10.00
2015,09,21,05,10,10.00
2015,09,21,05,11,9.90
2015,09,21,05,12,9.90
2015,09,21,05,13,9.80
2015,09,21,05,14,9.80
2015,09,21,05,15,9.80
2015,09,21,05,16,9.80
2015,09,21,05,17,9.70
2015,09,21,05,18,9.70
2015,09,21,05,19,9.70
2015,09,21,05,20,9.70
2015,09,21,05,21,9.70
2015,09,21,05,22,9.70
2015,09,21,05,23,9.60
2015,09,21,05,24,9.60
2015,09,21,05,25,9.50
2015,09,21,05,26,9.50
2015,09,21,05,27,9.40
2015,09,21,05,28,9.40
2015,09,21,05,29,9.40
2015,09,21,05,30,9.40
2015,09,21,05,31,9.40
2015,09,21,05,32,9.40
2015,09,21,05,33,9.40
2015,09,21,05,34,9.40
2015,09,21,05,35,9.40
2015,09,21,05,36,9.40
2015,09,21,05,37,9.40
2015,09,21,05,38,9.30
2015,09,21,05,39,9.30
2015,09,21,05,40,9.30
2015,09,21,05,41,9.30
2015,09,21,05,42,9.30
2015,09,21,05,43,9.30
2015,09,21,05,44,9.30
2015,09,21,05,45,9.30
2015,09,21,05,46,9.30
2015,09,21,05,47,9.30
2015,09,21,05,48,9.30
2015,09,21,05,49,9.30
2015,09,21,05,50,9.30
2015,09,21,05,51,9.30
2015,09,21,05,52,9.30
2015,09,21,05,53,9.30
2015,09,21,05,54,9.30
2015,09,21,05,55,9.30
2015,09,21,05,56,9.20
2015,09,21,05,57,9.20
2015,09,21,05,58,9.20
2015,09,21,05,59,9.10
2015,09,21,06,00,9.10
2015,09,21,06,01,9.10
2015,09,21,06,02,9.10
2015,09,21,06,03,9.00
2015,09,21,06,04,9.00
2015,09,21,06,05,9.00
2015,09,21,06,06,9.00
2015,09,21,06,07,9.00
2015,09,21,06,08,9.00
2015,09,21,06,09,8.90
2015,09,21,06,10,8.90
2015,09,21,06,11,8.90
2015,09,21,06,12,8.90
2015,09,21,06,13,8.90
2015,09,21,06,14,8.90
2015,09,21,06,15,8.90
2015,09,21,06,16,8.90
2015,09,21,06,17,8.80
2015,09,21,06,18,8.80
2015,09,21,06,19,8.80
2015,09,21,06,20,8.80
2015,09,21,06,21,8.80
2015,09,21,06,22,8.80
2015,09,21,06,23,8.80
2015,09,21,06,24,8.80
2015,09,21,06,25,8.70
2015,09,21,06,26,8.70
2015,09,21,06,27,8.70
2015,09,21,06,28,8.70
2015,09,21,06,29,8.70
2015,09,21,06,30,8.60
2015,09,21,06,31,8.60
2015,09,21,06,32,8.60
2015,09,21,06,33,8.60
2015,09,21,06,34,8.50
2015,09,21,06,35,8.50
2015,09,21,06,36,8.40
2015,09,21,06,37,8.40
2015,09,21,06,38,8.40
2015,09,21,06,39,8.40
2015,09,21,06,40,8.40
2015,09,21,06,41,8.30
2015,09,21,06,42,8.30
2015,09,21,06,43,8.30
2015,09,21,06,44,8.30
2015,09,21,06,45,8.30
2015,09,21,06,46,8.20
2015,09,21,06,47,8.20
2015,09,21,06,48,8.20
2015,09,21,06,49,8.20
2015,09,21,06,50,8.20
2015,09,21,06,51,8.10
2015,09,21,06,52,8.10
2015,09,21,06,53,8.10
2015,09,21,06,54,8.10
2015,09,21,06,55,8.10
2015,09,21,06,56,8.00
2015,09,21,06,57,8.00
2015,09,21,06,58,7.90
2015,09,21,06,59,7.90
2015,09,21,07,00,7.90
2015,09,21,07,01,7.90
2015,09,21,07,02,7.80
2015,09,21,07,03,7.80
2015,09,21,07,04,7.80
2015,09,21,07,05,7.80
2015,09,21,07,06,7.80
2015,09,21,07,07,7.80
2015,09,21,07,08,7.80
2015,09,21,07,09,7.80
2015,09,21,07,10,7.80
2015,09,21,07,11,7.80
2015,09,21,07,12,7.80
2015,09,21,07,13,7.80
2015,09,21,07,14,7.80
2015,09,21,07,15,7.80
2015,09,21,07,16,7.80
2015,09,21,07,17,7.80
2015,09,21,07,18,7.70
2015,09,21,07,19,7.70
2015,09,21,07,20,7.70
2015,09,21,07,21,7.70
2015,09,21,07,22,7.60
2015,09,21,07,23,7.60
2015,09,21,07,24,7.60
2015,09,21,07,25,7.60
2015,09,21,07,26,7.60
2015,09,21,07,27,7.60
2015,09,21,07,28,7.60
2015,09,21,07,29,7.60
2015,09,21,07,30,7.60
2015,09,21,07,31,7.60
2015,09,21,07,32,7.60
2015,09,21,07,33,7.70
2015,09,21,07,34,7.70
2015,09,21,07,35,7.70
2015,09,21,07,36,7.70
2015,09,21,07,37,7.70
2015,09,21,07,38,7.60
2015,09,21,07,39,7.60
2015,09,21,07,40,7.60
2015,09,21,07,41,7.60
2015,09,21,07,42,7.70
2015,09,21,07,43,7.70
2015,09,21,07,44,7.70
2015,09,21,07,45,7.70
2015,09,21,07,46,7.80
2015,09,21,07,47,7.80
2015,09,21,07,48,7.80
2015,09,21,07,49,7.70
2015,09,21,07,50,7.70
2015,09,21,07,51,7.70
2015,09,21,07,52,7.70
2015,09,21,07,53,7.70
2015,09,21,07,54,7.70
2015,09,21,07,55,7.70
2015,09,21,07,56,7.70
2015,09,21,07,57,7.70
2015,09,21,07,58,7.70
2015,09,21,07,59,7.80
2015,09,21,08,00,7.80
2015,09,21,08,01,7.80
2015,09,21,08,02,7.80
2015,09,21,08,03,7.80
2015,09,21,08,04,7.80
2015,09,21,08,05,7.80
2015,09,21,08,06,7.80
2015,09,21,08,07,7.70
2015,09,21,08,08,7.70
2015,09,21,08,09,7.70
2015,09,21,08,10,7.70
2015,09,21,08,11,7.80
2015,09,21,08,12,7.80
2015,09,21,08,13,7.70
2015,09,21,08,14,7.70
2015,09,21,08,15,7.70
2015,09,21,08,16,7.80
2015,09,21,08,17,7.80
2015,09,21,08,18,7.80
2015,09,21,08,19,7.90
2015,09,21,08,20,8.00
2015,09,21,08,21,8.00
2015,09,21,08,22,8.00
2015,09,21,08,23,8.10
2015,09,21,08,24,8.10
2015,09,21,08,25,8.10
2015,09,21,08,26,8.20
2015,09,21,08,27,8.30
2015,09,21,08,28,8.30
2015,09,21,08,29,8.40
2015,09,21,08,30,8.50
2015,09,21,08,31,8.60
2015,09,21,08,32,8.70
2015,09,21,08,33,8.70
2015,09,21,08,34,8.80
2015,09,21,08,35,8.90
2015,09,21,08,36,8.90
2015,09,21,08,37,9.00
2015,09,21,08,38,9.10
2015,09,21,08,39,9.10
2015,09,21,08,40,9.20
2015,09,21,08,41,9.30
2015,09,21,08,42,9.40
2015,09,21,08,43,9.40
2015,09,21,08,44,9.50
2015,09,21,08,45,9.50
2015,09,21,08,46,9.60
2015,09,21,08,47,9.70
2015,09,21,08,48,9.70
2015,09,21,08,49,9.80
2015,09,21,08,50,9.80
2015,09,21,08,51,9.90
2015,09,21,08,52,10.00
2015,09,21,08,53,10.00
2015,09,21,08,54,10.10
2015,09,21,08,55,10.20
2015,09,21,08,56,10.30
2015,09,21,08,57,10.30
2015,09,21,08,58,10.40
2015,09,21,08,59,10.50
2015,09,21,09,00,10.50
2015,09,21,09,01,10.60
2015,09,21,09,02,10.60
2015,09,21,09,03,10.60
2015,09,21,09,04,10.70
2015,09,21,09,05,10.70
2015,09,21,09,06,10.80
2015,09,21,09,07,10.80
2015,09,21,09,08,10.80
2015,09,21,09,09,10.90
2015,09,21,09,10,10.90
2015,09,21,09,11,11.00
2015,09,21,09,12,11.10
2015,09,21,09,13,11.10
2015,09,21,09,14,11.20
2015,09,21,09,15,11.20
2015,09,21,09,16,11.30
2015,09,21,09,17,11.30
2015,09,21,09,18,11.40
2015,09,21,09,19,11.50
2015,09,21,09,20,11.50
2015,09,21,09,21,11.60
2015,09,21,09,22,11.70
2015,09,21,09,23,11.80
2015,09,21,09,24,11.80
2015,09,21,09,25,11.80
2015,09,21,09,26,11.90
2015,09,21,09,27,11.90
2015,09,21,09,28,12.00
2015,09,21,09,29,12.10
2015,09,21,09,30,12.20
2015,09,21,09,31,12.20
2015,09,21,09,32,12.30
2015,09,21,09,33,12.40
2015,09,21,09,34,12.40
2015,09,21,09,35,12.50
2015,09,21,09,36,12.50
2015,09,21,09,37,12.60
2015,09,21,09,38,12.60
2015,09,21,09,39,12.70
2015,09,21,09,40,12.80
2015,09,21,09,41,12.80
2015,09,21,09,42,12.90
2015,09,21,09,43,13.00
2015,09,21,09,44,13.10
2015,09,21,09,45,13.20
2015,09,21,09,46,13.30
2015,09,21,09,47,13.30
2015,09,21,09,48,13.40
2015,09,21,09,49,13.50
2015,09,21,09,50,13.60
2015,09,21,09,51,13.60
2015,09,21,09,52,13.70
2015,09,21,09,53,13.70
2015,09,21,09,54,13.70
2015,09,21,09,55,13.70
2015,09,21,09,56,13.80
2015,09,21,09,57,13.80
2015,09,21,09,58,13.80
2015,09,21,09,59,13.80
2015,09,21,10,00,13.70
2015,09,21,10,01,13.70
2015,09,21,10,02,13.70
2015,09,21,10,03,13.70
2015,09,21,10,04,13.70
2015,09,21,10,05,13.70
2015,09,21,10,06,13.70
2015,09,21,10,07,13.70
2015,09,21,10,08,13.80
2015,09,21,10,09,13.80
2015,09,21,10,10,13.90
2015,09,21,10,11,13.90
2015,09,21,10,12,14.00
2015,09,21,10,13,14.00
2015,09,21,10,14,14.10
2015,09,21,10,15,14.10
2015,09,21,10,16,14.10
2015,09,21,10,17,14.10
2015,09,21,10,18,14.20
2015,09,21,10,19,14.20
2015,09,21,10,20,14.20
2015,09,21,10,21,14.20
2015,09,21,10,22,14.20
2015,09,21,10,23,14.20
2015,09,21,10,24,14.20
2015,09,21,10,25,14.20
2015,09,21,10,26,14.30
2015,09,21,10,27,14.30
2015,09,21,10,28,14.30
2015,09,21,10,29,14.30
2015,09,21,10,30,14.30
2015,09,21,10,31,14.20
2015,09,21,10,32,14.30
2015,09,21,10,33,14.30
2015,09,21,10,34,14.30
2015,09,21,10,35,14.40
2015,09,21,10,36,14.40
2015,09,21,10,37,14.40
2015,09,21,10,38,14.40
2015,09,21,10,39,14.40
2015,09,21,10,40,14.50
2015,09,21,10,41,14.50
2015,09,21,10,42,14.50
2015,09,21,10,43,14.60
2015,09,21,10,44,14.60
2015,09,21,10,45,14.70
2015,09,21,10,46,14.80
2015,09,21,10,47,14.80
2015,09,21,10,48,14.90
2015,09,21,10,49,14.90
2015,09,21,10,50,15.00
2015,09,21,10,51,15.00
2015,09,21,10,52,15.00
2015,09,21,10,53,15.00
2015,09,21,10,54,14.90
2015,09,21,10,55,14.80
2015,09,21,10,56,14.80
2015,09,21,10,57,14.60
2015,09,21,10,58,14.60
2015,09,21,10,59,14.60
2015,09,21,11,00,14.60
2015,09,21,11,01,14.60
2015,09,21,11,02,14.60
2015,09,21,11,03,14.60
2015,09,21,11,04,14.60
2015,09,21,11,05,14.70
2015,09,21,11,06,14.70
2015,09,21,11,07,14.80
2015,09,21,11,08,14.90
2015,09,21,11,09,15.00
2015,09,21,11,10,15.10
2015,09,21,11,11,15.10
2015,09,21,11,12,15.20
2015,09,21,11,13,15.20
2015,09,21,11,14,15.20
2015,09,21,11,15,15.30
2015,09,21,11,16,15.30
2015,09,21,11,17,15.40
2015,09,21,11,18,15.40
2015,09,21,11,19,15.40
2015,09,21,11,20,15.40
2015,09,21,11,21,15.30
2015,09,21,11,22,15.10
2015,09,21,11,23,15.00
2015,09,21,11,24,14.90
2015,09,21,11,25,14.90
2015,09,21,11,26,14.90
2015,09,21,11,27,14.80
2015,09,21,11,28,14.80
2015,09,21,11,29,14.90
2015,09,21,11,30,14.90
2015,09,21,11,31,14.80
2015,09,21,11,32,14.70
2015,09,21,11,33,14.60
2015,09,21,11,34,14.50
2015,09,21,11,35,14.50
2015,09,21,11,36,14.50
2015,09,21,11,37,14.50
2015,09,21,11,38,14.50
2015,09,21,11,39,14.40
2015,09,21,11,40,14.50
2015,09,21,11,41,14.60
2015,09,21,11,42,14.60
2015,09,21,11,43,14.60
2015,09,21,11,44,14.70
2015,09,21,11,45,14.80
2015,09,21,11,46,14.90
2015,09,21,11,47,15.00
2015,09,21,11,48,15.10
2015,09,21,11,49,15.20
2015,09,21,11,50,15.20
2015,09,21,11,51,15.30
2015,09,21,11,52,15.40
2015,09,21,11,53,15.40
2015,09,21,11,54,15.40
2015,09,21,11,55,15.40
2015,09,21,11,56,15.40
2015,09,21,11,57,15.40
2015,09,21,11,58,15.40
2015,09,21,11,59,15.40
2015,09,21,12,00,15.40
2015,09,21,12,01,15.40
2015,09,21,12,02,15.30
2015,09,21,12,03,15.30
2015,09,21,12,04,15.20
2015,09,21,12,05,15.20
2015,09,21,12,06,15.20
2015,09,21,12,07,15.20
2015,09,21,12,08,15.30
2015,09,21,12,09,15.40
2015,09,21,12,10,15.50
2015,09,21,12,11,15.50
2015,09,21,12,12,15.60
2015,09,21,12,13,15.50
2015,09,21,12,14,15.40
2015,09,21,12,15,15.40
2015,09,21,12,16,15.50
2015,09,21,12,17,15.50
2015,09,21,12,18,15.40
2015,09,21,12,19,15.40
2015,09,21,12,20,15.40
2015,09,21,12,21,15.40
2015,09,21,12,22,15.40
2015,09,21,12,23,15.40
2015,09,21,12,24,15.40
2015,09,21,12,25,15.40
2015,09,21,12,26,15.40
2015,09,21,12,27,15.40
2015,09,21,12,28,15.30
2015,09,21,12,29,15.30
2015,09,21,12,30,15.40
2015,09,21,12,31,15.30
2015,09,21,12,32,15.30
2015,09,21,12,33,15.30
2015,09,21,12,34,15.30
2015,09,21,12,35,15.10
2015,09,21,12,36,15.00
2015,09,21,12,37,14.90
2015,09,21,12,38,15.00
2015,09,21,12,39,15.00
2015,09,21,12,40,15.10
2015,09,21,12,41,15.10
2015,09,21,12,42,15.00
2015,09,21,12,43,14.90
2015,09,21,12,44,14.80
2015,09,21,12,45,14.70
2015,09,21,12,46,14.70
2015,09,21,12,47,14.70
2015,09,21,12,48,14.80
2015,09,21,12,49,14.80
2015,09,21,12,50,14.90
2015,09,21,12,51,14.80
2015,09,21,12,52,14.70
2015,09,21,12,53,14.70
2015,09,21,12,54,14.70
2015,09,21,12,55,14.70
2015,09,21,12,56,14.70
2015,09,21,12,57,14.80
2015,09,21,12,58,14.80
2015,09,21,12,59,14.80
2015,09,21,13,00,14.90
2015,09,21,13,01,14.90
2015,09,21,13,02,15.00
2015,09,21,13,03,15.10
2015,09,21,13,04,15.10
2015,09,21,13,05,15.10
2015,09,21,13,06,15.10
2015,09,21,13,07,15.20
2015,09,21,13,08,15.30
2015,09,21,13,09,15.30
2015,09,21,13,10,15.30
2015,09,21,13,11,15.40
2015,09,21,13,12,15.40
2015,09,21,13,13,15.40
2015,09,21,13,14,15.40
2015,09,21,13,15,15.40
2015,09,21,13,16,15.30
2015,09,21,13,17,15.20
2015,09,21,13,18,15.30
2015,09,21,13,19,15.30
2015,09,21,13,20,15.30
2015,09,21,13,21,15.30
2015,09,21,13,22,15.30
2015,09,21,13,23,15.30
2015,09,21,13,24,15.00
2015,09,21,13,25,14.80
2015,09,21,13,26,14.60
2015,09,21,13,27,14.50
2015,09,21,13,28,14.50
2015,09,21,13,29,14.50
2015,09,21,13,30,14.60
2015,09,21,13,31,14.60
2015,09,21,13,32,14.60
2015,09,21,13,33,14.60
2015,09,21,13,34,14.60
2015,09,21,13,35,14.60
2015,09,21,13,36,14.70
2015,09,21,13,37,14.70
2015,09,21,13,38,14.80
2015,09,21,13,39,14.80
2015,09,21,13,40,14.90
2015,09,21,13,41,15.00
2015,09,21,13,42,15.00
2015,09,21,13,43,15.10
2015,09,21,13,44,15.10
2015,09,21,13,45,15.10
2015,09,21,13,46,15.00
2015,09,21,13,47,14.90
2015,09,21,13,48,14.90
2015,09,21,13,49,14.80
2015,09,21,13,50,14.90
2015,09,21,13,51,15.00
2015,09,21,13,52,15.10
2015,09,21,13,53,15.20
2015,09,21,13,54,15.30
2015,09,21,13,55,15.40
2015,09,21,13,56,15.40
2015,09,21,13,57,15.40
2015,09,21,13,58,15.40
2015,09,21,13,59,15.40
2015,09,21,14,00,15.40
2015,09,21,14,01,15.40
2015,09,21,14,02,15.50
2015,09,21,14,03,15.50
2015,09,21,14,04,15.60
2015,09,21,14,05,15.60
2015,09,21,14,06,15.50
2015,09,21,14,07,15.40
2015,09,21,14,08,15.30
2015,09,21,14,09,15.30
2015,09,21,14,10,15.20
2015,09,21,14,11,15.20
2015,09,21,14,12,15.10
2015,09,21,14,13,15.10
2015,09,21,14,14,15.10
2015,09,21,14,15,15.10
2015,09,21,14,16,15.10
2015,09,21,14,17,15.10
2015,09,21,14,18,15.10
2015,09,21,14,19,15.10
2015,09,21,14,20,15.10
2015,09,21,14,21,15.20
2015,09,21,14,22,15.20
2015,09,21,14,23,15.20
2015,09,21,14,24,15.20
2015,09,21,14,25,15.20
2015,09,21,14,26,15.20
2015,09,21,14,27,15.20
2015,09,21,14,28,15.30
2015,09,21,14,29,15.30
2015,09,21,14,30,15.30
2015,09,21,14,31,15.40
2015,09,21,14,32,15.40
2015,09,21,14,33,15.40
2015,09,21,14,34,15.50
2015,09,21,14,35,15.60
2015,09,21,14,36,15.70
2015,09,21,14,37,15.70
2015,09,21,14,38,15.80
2015,09,21,14,39,15.90
2015,09,21,14,40,15.90
2015,09,21,14,41,15.90
2015,09,21,14,42,15.90
2015,09,21,14,43,15.90
2015,09,21,14,44,16.00
2015,09,21,14,45,16.00
2015,09,21,14,46,16.10
2015,09,21,14,47,16.00
2015,09,21,14,48,16.00
2015,09,21,14,49,16.00
2015,09,21,14,50,16.00
2015,09,21,14,51,15.90
2015,09,21,14,52,15.80
2015,09,21,14,53,15.80
2015,09,21,14,54,15.70
2015,09,21,14,55,15.70
2015,09,21,14,56,15.70
2015,09,21,14,57,15.70
2015,09,21,14,58,15.70
2015,09,21,14,59,15.80
2015,09,21,15,00,15.80
2015,09,21,15,01,15.90
2015,09,21,15,02,16.00
2015,09,21,15,03,16.10
2015,09,21,15,04,16.10
2015,09,21,15,05,16.20
2015,09,21,15,06,16.30
2015,09,21,15,07,16.30
2015,09,21,15,08,16.40
2015,09,21,15,09,16.40
2015,09,21,15,10,16.50
2015,09,21,15,11,16.60
2015,09,21,15,12,16.70
2015,09,21,15,13,16.80
2015,09,21,15,14,16.80
2015,09,21,15,15,16.80
2015,09,21,15,16,16.80
2015,09,21,15,17,16.80
2015,09,21,15,18,16.70
2015,09,21,15,19,16.60
2015,09,21,15,20,16.40
2015,09,21,15,21,16.30
2015,09,21,15,22,16.20
2015,09,21,15,23,16.20
2015,09,21,15,24,16.10
2015,09,21,15,25,16.10
2015,09,21,15,26,16.10
2015,09,21,15,27,16.10
2015,09,21,15,28,16.20
2015,09,21,15,29,16.20
2015,09,21,15,30,16.30
2015,09,21,15,31,16.40
2015,09,21,15,32,16.50
2015,09,21,15,33,16.60
2015,09,21,15,34,16.70
2015,09,21,15,35,16.70
2015,09,21,15,36,16.80
2015,09,21,15,37,16.80
2015,09,21,15,38,16.80
2015,09,21,15,39,16.70
2015,09,21,15,40,16.70
2015,09,21,15,41,16.70
2015,09,21,15,42,16.70
2015,09,21,15,43,16.70
2015,09,21,15,44,16.70
2015,09,21,15,45,16.60
2015,09,21,15,46,16.60
2015,09,21,15,47,16.60
2015,09,21,15,48,16.50
2015,09,21,15,49,16.50
2015,09,21,15,50,16.40
2015,09,21,15,51,16.40
2015,09,21,15,52,16.30
2015,09,21,15,53,16.30
2015,09,21,15,54,16.30
2015,09,21,15,55,16.30
2015,09,21,15,56,16.30
2015,09,21,15,57,16.30
2015,09,21,15,58,16.40
2015,09,21,15,59,16.40
2015,09,21,16,00,16.50
2015,09,21,16,01,16.50
2015,09,21,16,02,16.60
2015,09,21,16,03,16.70
2015,09,21,16,04,16.70
2015,09,21,16,05,16.70
2015,09,21,16,06,16.80
2015,09,21,16,07,16.80
2015,09,21,16,08,16.90
2015,09,21,16,09,16.90
2015,09,21,16,10,16.90
2015,09,21,16,11,16.90
2015,09,21,16,12,16.90
2015,09,21,16,13,16.80
2015,09,21,16,14,16.80
2015,09,21,16,15,16.60
2015,09,21,16,16,16.50
2015,09,21,16,17,16.40
2015,09,21,16,18,16.20
2015,09,21,16,19,16.10
2015,09,21,16,20,16.10
2015,09,21,16,21,16.00
2015,09,21,16,22,16.00
2015,09,21,16,23,16.00
2015,09,21,16,24,16.00
2015,09,21,16,25,16.10
2015,09,21,16,26,16.10
2015,09,21,16,27,16.20
2015,09,21,16,28,16.30
2015,09,21,16,29,16.30
2015,09,21,16,30,16.40
2015,09,21,16,31,16.40
2015,09,21,16,32,16.50
2015,09,21,16,33,16.50
2015,09,21,16,34,16.60
2015,09,21,16,35,16.50
2015,09,21,16,36,16.50
2015,09,21,16,37,16.40
2015,09,21,16,38,16.40
2015,09,21,16,39,16.30
2015,09,21,16,40,16.20
2015,09,21,16,41,16.10
2015,09,21,16,42,16.00
2015,09,21,16,43,15.90
2015,09,21,16,44,15.80
2015,09,21,16,45,15.70
2015,09,21,16,46,15.60
2015,09,21,16,47,15.60
2015,09,21,16,48,15.50
2015,09,21,16,49,15.50
2015,09,21,16,50,15.50
2015,09,21,16,51,15.50
2015,09,21,16,52,15.50
2015,09,21,16,53,15.50
2015,09,21,16,54,15.60
2015,09,21,16,55,15.60
2015,09,21,16,56,15.60
2015,09,21,16,57,15.60
2015,09,21,16,58,15.60
2015,09,21,16,59,15.60
2015,09,21,17,00,15.60
2015,09,21,17,01,15.60
2015,09,21,17,02,15.60
2015,09,21,17,03,15.60
2015,09,21,17,04,15.60
2015,09,21,17,05,15.60
2015,09,21,17,06,15.60
2015,09,21,17,07,15.60
2015,09,21,17,08,15.60
2015,09,21,17,09,15.60
2015,09,21,17,10,15.60
2015,09,21,17,11,15.60
2015,09,21,17,12,15.60
2015,09,21,17,13,15.60
2015,09,21,17,14,15.60
2015,09,21,17,15,15.50
2015,09,21,17,16,15.50
2015,09,21,17,17,15.40
2015,09,21,17,18,15.30
2015,09,21,17,19,15.30
2015,09,21,17,20,15.20
2015,09,21,17,21,15.20
2015,09,21,17,22,15.20
2015,09,21,17,23,15.30
2015,09,21,17,24,15.30
2015,09,21,17,25,15.40
2015,09,21,17,26,15.40
2015,09,21,17,27,15.40
2015,09,21,17,28,15.30
2015,09,21,17,29,15.30
2015,09,21,17,30,15.30
2015,09,21,17,31,15.30
2015,09,21,17,32,15.30
2015,09,21,17,33,15.30
2015,09,21,17,34,15.30
2015,09,21,17,35,15.30
2015,09,21,17,36,15.30
2015,09,21,17,37,15.30
2015,09,21,17,38,15.20
2015,09,21,17,39,15.20
2015,09,21,17,40,15.10
2015,09,21,17,41,15.10